Wolf Point, MT

9:17 AM MDT on August 22, 2017 (GMT -0600)
Clayton

Weather History for KOLF - January, 2013

Change the Weather History Date:

Tuesday, January 15, 2013

  Actual Average Record
Temperature  
Mean Temperature 23 °F -  
Max Temperature 38 °F 24 °F 44 °F (2008)
Min Temperature 7 °F 1 °F -33 °F (2005)
Degree Days  
Heating Degree Days 42    
Cooling Degree Days 0    
Moisture  
Dew Point 22 °F    
Average Humidity 82    
Maximum Humidity 93    
Minimum Humidity 73    
Precipitation  
Precipitation T in 0.02 in 0.01 in (2001)
Month to date precipitation 0.05 0.20  
Year to date precipitation 0.05 0.20  
Sea Level Pressure  
Sea Level Pressure 29.87 in    
Wind  
Wind Speed 9 mph (WSW)    
Max Wind Speed 24 mph    
Max Gust Speed 31 mph    
Visibility 9 miles    
Events Rain , Snow    
T = Trace of Precipitation, MM = Missing Value Source: NWS Daily Summary

Daily Weather History Graph

Daily Weather History Graph

Search for Another Location

Airport or City:

Trip Planner

Search our weather history database for the weather conditions in past years. The results will help you decide how hot, cold, wet, or windy it might be!

Date:

Astronomy

Jan. 15, 2013 Rise Set
Actual Time 7:47 AM MST 4:36 PM MST
Civil Twilight 7:12 AM MST 5:11 PM MST
Nautical Twilight 6:33 AM MST 5:50 PM MST
Astronomical Twilight 5:56 AM MST 6:27 PM MST
Moon 9:30 AM MST (1/15) 9:56 PM MST (1/15)
Length of Visible Light 9h 59m
Length of Day
8h 49m
Waxing Crescent, 20% of the Moon is Illuminated
Jan 15
Waxing Crescent
Jan 18
First Quarter
Jan 26
Full
Feb 3
Last Quarter
Feb 10
New

Hourly Weather History & Observations

Time (MST) Temp. Windchill Dew Point Humidity Pressure Visibility Wind Dir Wind Speed Gust Speed Precip Events Conditions
12:53 AM 8.6 °F - 3.2 °F 79% 29.90 in 10.0 mi Calm Calm - N/A   Overcast
1:30 AM 8.6 °F - 3.2 °F 79% 29.90 in 10.0 mi Calm Calm - N/A   Overcast
2:02 AM 8.6 °F - 5.0 °F 85% 29.89 in 10.0 mi Calm Calm - N/A   Overcast
2:53 AM 10.9 °F 1.4 °F 6.1 °F 81% 30.00 in 10.0 mi WSW 5.8 mph - N/A   Overcast
3:06 AM 12.2 °F 2.9 °F 6.8 °F 79% 29.87 in 10.0 mi West 5.8 mph - N/A   Overcast
3:43 AM 12.2 °F 4.3 °F 8.6 °F 85% 29.86 in 10.0 mi WSW 4.6 mph - N/A   Overcast
3:53 AM 14.0 °F 8.2 °F 9.0 °F 80% 29.99 in 10.0 mi WSW 3.5 mph - N/A   Overcast
4:28 AM 15.8 °F 8.6 °F 10.4 °F 79% 29.86 in 10.0 mi WSW 4.6 mph - N/A   Overcast
4:53 AM 15.1 °F 9.4 °F 10.9 °F 84% 29.97 in 10.0 mi SSW 3.5 mph - N/A   Overcast
5:09 AM 17.6 °F 6.4 °F 12.2 °F 79% 29.84 in 10.0 mi WSW 9.2 mph - N/A   Overcast
5:24 AM 17.6 °F 7.3 °F 14.0 °F 86% 29.84 in 10.0 mi SW 8.1 mph - N/A   Overcast
5:53 AM 21.0 °F 9.9 °F 17.1 °F 85% 29.96 in 10.0 mi WSW 10.4 mph - N/A   Overcast
6:01 AM 21.2 °F 10.9 °F 17.6 °F 86% 29.83 in 10.0 mi SW 9.2 mph - N/A   Overcast
6:38 AM 24.8 °F 16.9 °F 21.2 °F 86% 29.82 in 10.0 mi WSW 6.9 mph - N/A   Overcast
6:53 AM 23.0 °F 13.9 °F 19.9 °F 88% 29.94 in 10.0 mi WSW 8.1 mph - N/A   Overcast
7:53 AM 27.0 °F 16.1 °F 24.1 °F 89% 29.93 in 9.0 mi West 12.7 mph - N/A   Overcast
8:50 AM 28.4 °F 18.5 °F 26.6 °F 93% 29.82 in 10.0 mi West 11.5 mph - N/A   Overcast
8:53 AM 28.0 °F 18.6 °F 26.1 °F 92% 29.93 in 10.0 mi West 10.4 mph - N/A   Overcast
9:53 AM 32.0 °F 22.5 °F 28.0 °F 85% 29.92 in 9.0 mi West 12.7 mph - 0.00 in   Overcast
10:25 AM 33.8 °F 24.8 °F 30.2 °F 87% 29.81 in 2.5 mi West 12.7 mph - 0.00 in Snow Light Snow
10:33 AM 33.8 °F 23.5 °F 30.2 °F 87% 29.81 in 4.0 mi West 16.1 mph - 0.00 in Snow Light Snow
10:41 AM 33.8 °F 23.9 °F 30.2 °F 87% 29.80 in 3.0 mi West 15.0 mph - 0.00 in Snow Light Snow
10:53 AM 33.1 °F 23.0 °F 30.0 °F 89% 29.90 in 3.0 mi West 15.0 mph - 0.00 in Snow Light Snow
11:06 AM 33.8 °F 23.2 °F 30.2 °F 87% 29.80 in 4.0 mi West 17.3 mph - 0.00 in Snow Light Snow
11:49 AM 33.8 °F 23.5 °F 30.2 °F 87% 29.78 in 10.0 mi West 16.1 mph - 0.00 in Rain Light Rain
11:53 AM 34.0 °F 23.4 °F 30.9 °F 89% 29.87 in 10.0 mi West 17.3 mph - 0.00 in Rain Light Rain
12:17 PM 35.6 °F 25.5 °F 30.2 °F 81% 29.76 in 10.0 mi West 17.3 mph - N/A   Overcast
12:53 PM 36.0 °F 24.7 °F 28.9 °F 76% 29.85 in 10.0 mi West 21.9 mph - 0.00 in   Overcast
1:53 PM 36.0 °F 25.0 °F 28.9 °F 76% 29.85 in 10.0 mi West 20.7 mph 28.8 mph N/A   Overcast
2:53 PM 36.0 °F 25.0 °F 28.9 °F 76% 29.84 in 10.0 mi West 20.7 mph 28.8 mph N/A   Scattered Clouds
3:53 PM 37.0 °F 25.6 °F 28.9 °F 73% 29.85 in 10.0 mi West 24.2 mph 31.1 mph N/A   Partly Cloudy
4:53 PM 37.0 °F 25.9 °F 30.0 °F 76% 29.86 in 10.0 mi West 23.0 mph 29.9 mph N/A   Overcast
5:53 PM 36.0 °F 26.3 °F 30.0 °F 79% 29.86 in 10.0 mi West 16.1 mph - N/A   Scattered Clouds
6:53 PM 37.0 °F 26.7 °F 30.0 °F 76% 29.87 in 10.0 mi West 19.6 mph - N/A   Mostly Cloudy
7:53 PM 37.0 °F 27.7 °F 30.0 °F 76% 29.88 in 10.0 mi West 16.1 mph - N/A   Overcast
8:53 PM 37.9 °F 28.9 °F 30.0 °F 73% 29.88 in 10.0 mi West 16.1 mph - N/A   Overcast
9:53 PM 37.0 °F 27.4 °F 30.0 °F 76% 29.87 in 10.0 mi WSW 17.3 mph 23.0 mph N/A   Overcast
10:53 PM 37.0 °F 26.7 °F 30.0 °F 76% 29.88 in 10.0 mi West 19.6 mph 26.5 mph N/A   Overcast
11:53 PM 37.0 °F 27.4 °F 30.0 °F 76% 29.87 in 10.0 mi West 17.3 mph 24.2 mph N/A   Overcast